• en Suisse
  • Liste des pays
  • À 7 jours
  • Température de l'eau
  • Carte satellitaire
  • Carte météo
  • Widgets météo
  • user-avatar
    Se connecter

    Météo par heure à Lesnaya

    Ce jour, 19 Juin, Mardi

    Heure Température Précipitation Vent Pression Humidité
    00:00 +14°C° 0 mm 2 m/s 757 mmHg 88%
    01:00 +13°C° 0 mm 2 m/s 757 mmHg 89%
    02:00 +12°C° 0 mm 2 m/s 757 mmHg 91%
    03:00 +12°C° 0 mm 2 m/s 757 mmHg 90%
    04:00 +11°C° 0 mm 3 m/s 757 mmHg 90%
    05:00 +12°C° 0 mm 3 m/s 756 mmHg 90%
    06:00 +13°C° 0 mm 3 m/s 756 mmHg 83%
    07:00 +15°C° 0 mm 4 m/s 756 mmHg 76%
    08:00 +18°C° 0 mm 4 m/s 756 mmHg 69%
    09:00 +19°C° 0 mm 4 m/s 755 mmHg 64%
    10:00 +20°C° 0 mm 5 m/s 755 mmHg 59%
    11:00 +21°C° 0 mm 5 m/s 754 mmHg 55%
    12:00 +20°C° 0,1 mm 5 m/s 754 mmHg 60%
    13:00 +20°C° 0,1 mm 5 m/s 753 mmHg 65%
    14:00 +19°C° 0,1 mm 5 m/s 753 mmHg 70%
    15:00 +17°C° 0,4 mm 6 m/s 753 mmHg 77%
    16:00 +16°C° 0,4 mm 6 m/s 752 mmHg 85%
    17:00 +15°C° 0,4 mm 6 m/s 752 mmHg 93%
    18:00 +15°C° 0,1 mm 5 m/s 752 mmHg 90%
    19:00 +14°C° 0,1 mm 5 m/s 752 mmHg 88%
    20:00 +14°C° 0,1 mm 5 m/s 753 mmHg 86%
    21:00 +13°C° 0 mm 5 m/s 753 mmHg 84%
    22:00 +12°C° 0 mm 5 m/s 753 mmHg 82%
    23:00 +12°C° 0 mm 5 m/s 754 mmHg 80%

    Demain, 20 Juin, Mercredi

    Heure Température Précipitation Vent Pression Humidité
    00:00 +12°C° 0 mm 5 m/s 754 mmHg 78%
    01:00 +12°C° 0 mm 5 m/s 754 mmHg 76%
    02:00 +10°C° 0 mm 5 m/s 754 mmHg 74%
    03:00 +12°C° 0 mm 5 m/s 755 mmHg 74%
    04:00 +12°C° 0 mm 5 m/s 755 mmHg 74%
    05:00 +12°C° 0 mm 5 m/s 755 mmHg 74%
    06:00 +14°C° 0 mm 5 m/s 755 mmHg 68%
    07:00 +15°C° 0 mm 6 m/s 755 mmHg 62%
    08:00 +17°C° 0 mm 6 m/s 755 mmHg 56%
    09:00 +17°C° 0 mm 6 m/s 755 mmHg 53%
    10:00 +19°C° 0 mm 6 m/s 755 mmHg 50%
    11:00 +20°C° 0 mm 7 m/s 755 mmHg 47%
    12:00 +21°C° 0 mm 7 m/s 755 mmHg 45%
    13:00 +21°C° 0 mm 7 m/s 755 mmHg 44%
    14:00 +21°C° 0 mm 7 m/s 755 mmHg 43%
    15:00 +21°C° 0 mm 7 m/s 755 mmHg 43%
    16:00 +20°C° 0 mm 6 m/s 755 mmHg 43%
    17:00 +20°C° 0 mm 6 m/s 755 mmHg 43%
    18:00 +17°C° 0 mm 5 m/s 755 mmHg 48%
    19:00 +16°C° 0 mm 5 m/s 755 mmHg 54%
    20:00 +15°C° 0 mm 4 m/s 756 mmHg 59%
    21:00 +14°C° 0 mm 4 m/s 756 mmHg 62%
    22:00 +13°C° 0 mm 3 m/s 755 mmHg 65%
    23:00 +12°C° 0 mm 3 m/s 755 mmHg 68%

    Après-demain, 21 Juin, Jeudi

    Heure Température Précipitation Vent Pression Humidité
    00:00 +12°C° 0,1 mm 3 m/s 755 mmHg 74%
    01:00 +12°C° 0,1 mm 2 m/s 755 mmHg 79%
    02:00 +10°C° 0,1 mm 2 m/s 755 mmHg 85%
    03:00 +12°C° 1,1 mm 2 m/s 754 mmHg 89%
    04:00 +11°C° 1,1 mm 3 m/s 754 mmHg 93%
    05:00 +11°C° 1,1 mm 3 m/s 753 mmHg 97%
    06:00 +12°C° 0,2 mm 4 m/s 753 mmHg 96%
    07:00 +13°C° 0,2 mm 4 m/s 753 mmHg 96%
    08:00 +14°C° 0,2 mm 4 m/s 752 mmHg 95%
    09:00 +15°C° 0,2 mm 4 m/s 752 mmHg 92%
    10:00 +16°C° 0,2 mm 5 m/s 752 mmHg 89%
    11:00 +17°C° 0,2 mm 5 m/s 752 mmHg 86%
    12:00 +19°C° 0,3 mm 5 m/s 752 mmHg 82%
    13:00 +20°C° 0,3 mm 5 m/s 751 mmHg 78%
    14:00 +21°C° 0,3 mm 5 m/s 751 mmHg 74%
    15:00 +21°C° 0,3 mm 4 m/s 751 mmHg 76%
    16:00 +20°C° 0,3 mm 4 m/s 751 mmHg 79%
    17:00 +20°C° 0,3 mm 4 m/s 750 mmHg 81%
    18:00 +20°C° 0,6 mm 3 m/s 750 mmHg 85%
    19:00 +19°C° 0,6 mm 2 m/s 749 mmHg 89%
    20:00 +18°C° 0,6 mm 2 m/s 749 mmHg 93%
    21:00 +18°C° 0,8 mm 2 m/s 749 mmHg 95%
    22:00 +17°C° 0,8 mm 2 m/s 748 mmHg 96%
    23:00 +17°C° 0,8 mm 2 m/s 748 mmHg 97%

    22 Juin, Vendredi

    Heure Température Précipitation Vent Pression Humidité
    00:00 +17°C° 0,5 mm 3 m/s 747 mmHg 97%
    01:00 +17°C° 0,5 mm 3 m/s 746 mmHg 97%
    02:00 +17°C° 0,5 mm 3 m/s 745 mmHg 98%
    03:00 +17°C° 1,3 mm 4 m/s 744 mmHg 97%
    04:00 +16°C° 1,3 mm 5 m/s 744 mmHg 96%
    05:00 +16°C° 1,3 mm 6 m/s 743 mmHg 96%
    06:00 +16°C° 0,4 mm 5 m/s 743 mmHg 96%
    07:00 +15°C° 0,4 mm 5 m/s 743 mmHg 95%
    08:00 +15°C° 0,4 mm 4 m/s 743 mmHg 95%
    09:00 +15°C° 0,1 mm 4 m/s 744 mmHg 91%
    10:00 +15°C° 0,1 mm 4 m/s 744 mmHg 86%
    11:00 +15°C° 0,1 mm 4 m/s 745 mmHg 82%
    12:00 +17°C° 0,1 mm 4 m/s 745 mmHg 72%
    13:00 +19°C° 0,1 mm 5 m/s 746 mmHg 63%
    14:00 +20°C° 0,1 mm 5 m/s 746 mmHg 53%
    15:00 +20°C° 0 mm 5 m/s 746 mmHg 52%
    16:00 +20°C° 0 mm 5 m/s 747 mmHg 50%
    17:00 +20°C° 0 mm 4 m/s 747 mmHg 49%
    18:00 +19°C° 0 mm 4 m/s 747 mmHg 56%
    19:00 +17°C° 0 mm 3 m/s 748 mmHg 63%
    20:00 +16°C° 0 mm 2 m/s 748 mmHg 70%
    21:00 +15°C° 0 mm 2 m/s 748 mmHg 74%
    22:00 +13°C° 0 mm 2 m/s 749 mmHg 77%
    23:00 +12°C° 0 mm 2 m/s 749 mmHg 81%

    23 Juin, Samedi

    Heure Température Précipitation Vent Pression Humidité
    00:00 +12°C° 0 mm 2 m/s 749 mmHg 83%
    01:00 +10°C° 0 mm 2 m/s 750 mmHg 85%
    02:00 +10°C° 0 mm 2 m/s 750 mmHg 87%
    03:00 +10°C° 0 mm 2 m/s 750 mmHg 86%
    04:00 +10°C° 0 mm 2 m/s 750 mmHg 86%
    05:00 +12°C° 0 mm 2 m/s 751 mmHg 85%
    06:00 +13°C° 0 mm 2 m/s 751 mmHg 78%
    07:00 +14°C° 0 mm 2 m/s 751 mmHg 72%
    08:00 +16°C° 0 mm 3 m/s 751 mmHg 65%
    09:00 +17°C° 0 mm 3 m/s 751 mmHg 61%
    10:00 +18°C° 0 mm 3 m/s 751 mmHg 56%
    11:00 +19°C° 0 mm 4 m/s 750 mmHg 52%
    12:00 +19°C° 0,1 mm 4 m/s 750 mmHg 52%
    13:00 +19°C° 0,1 mm 4 m/s 750 mmHg 51%
    14:00 +20°C° 0,1 mm 4 m/s 750 mmHg 51%
    15:00 +19°C° 0,3 mm 4 m/s 750 mmHg 59%
    16:00 +18°C° 0,3 mm 4 m/s 750 mmHg 66%
    17:00 +17°C° 0,3 mm 3 m/s 751 mmHg 73%
    18:00 +16°C° 0,3 mm 3 m/s 751 mmHg 79%
    19:00 +14°C° 0,3 mm 3 m/s 751 mmHg 84%
    20:00 +14°C° 0,3 mm 2 m/s 751 mmHg 89%
    21:00 +13°C° 0 mm 2 m/s 751 mmHg 91%
    22:00 +11°C° 0 mm 3 m/s 751 mmHg 93%
    23:00 +10°C° 0 mm 3 m/s 752 mmHg 95%

    24 Juin, Dimanche

    Heure Température Précipitation Vent Pression Humidité
    00:00 +9°C° 0 mm 3 m/s 752 mmHg 95%
    01:00 +9°C° 0 mm 3 m/s 752 mmHg 95%
    02:00 +9°C° 0 mm 3 m/s 752 mmHg 95%
    03:00 +9°C° 0,1 mm 3 m/s 752 mmHg 95%
    04:00 +9°C° 0,1 mm 3 m/s 752 mmHg 95%
    05:00 +8°C° 0,1 mm 4 m/s 753 mmHg 95%
    06:00 +10°C° 0,3 mm 4 m/s 753 mmHg 94%
    07:00 +10°C° 0,3 mm 4 m/s 753 mmHg 92%
    08:00 +11°C° 0,3 mm 4 m/s 753 mmHg 91%
    09:00 +12°C° 0,3 mm 4 m/s 753 mmHg 86%
    10:00 +13°C° 0,3 mm 3 m/s 753 mmHg 81%
    11:00 +14°C° 0,3 mm 3 m/s 754 mmHg 76%
    12:00 +16°C° 0,3 mm 3 m/s 754 mmHg 72%
    13:00 +17°C° 0,3 mm 3 m/s 754 mmHg 67%
    14:00 +18°C° 0,3 mm 3 m/s 754 mmHg 63%
    15:00 +18°C° 0,4 mm 3 m/s 754 mmHg 68%
    16:00 +17°C° 0,4 mm 3 m/s 754 mmHg 72%
    17:00 +17°C° 0,4 mm 3 m/s 754 mmHg 76%
    18:00 +16°C° 0,2 mm 3 m/s 755 mmHg 80%
    19:00 +14°C° 0,2 mm 3 m/s 755 mmHg 84%
    20:00 +13°C° 0,2 mm 3 m/s 755 mmHg 88%
    21:00 +12°C° 0 mm 3 m/s 756 mmHg 90%
    22:00 +11°C° 0 mm 3 m/s 756 mmHg 92%
    23:00 +10°C° 0 mm 3 m/s 757 mmHg 93%
    Voir plus